Location: Pasadena, ca
(34.1243°N, 118.1037°W)
Time: 21:16:30
(UTC-07:00)

Hubble Space Telescope - Pass Details

Date: 08 October 2017
Orbit: 537 x 541 km, 28.5° (Epoch: 22 October)

Event Time Altitude Azimuth Distance (km) Brightness Sun altitude
Exits shadow 05:37:55 24° 226° (SW) 1,131 2.0 -16.2°
Maximum altitude 05:39:20 30° 190° (S) 970 1.9 -15.9°
Drops below altitude 10° 05:42:59 10° 128° (SE) 1,788 4.1 -15.2°
Sets 05:45:25 0° 118° (ESE) 2,678 5.4 -14.7°
